Content
SEND FEEDBACK

Daily
Averages
Monthly
Summary
United States of America

ANN ARBOR, MICHIGAN


Home > North America > United States > Michigan
Elevation: 231 meters     Latitude: 42 17N     Longitude: 083 43W

WEATHER
 
SELECT A DAY
Number of Records: 203,295;   Date Range: 1/1/95 - 7/26/14
 
SHARE

PRINT THIS DATA

[ ← Previous Day ]
WEATHER ALMANAC - 16 APRIL, 2014
[ Next Day → ]
[ °F ]   °C
Weather ElementAverageHighLow
Temperature-0.8 °C5 °C (2:53 pm)-7.8 °C (3:53 am)
Dewpoint-7.7 °C-4.4 °C (6:53 pm)-11.7 °C (10:53 am)
Humidity63.1 %88 % (3:53 am)38 % (10:53 am)
Barometer1029.5 hPa1031.8 hPa (11:53 am)1025.7 hPa (1:53 am)
Wind Speed9.5 km/h24.1 km/h (4:53 pm)
Wind Gust35.2 km/h (4:53 pm)
Weather ElementAverage
Visibility15.9 km
Wind DirectionE (94.1 °)

Weather ElementTotal
Precipitation---
Heating Degree Days19.7 (Base 18.3)
Averaged from 22 records on 16 April, 2014
WEATHER CONDITIONS BREAKOUT
WIND DIRECTION BREAKOUT
WEATHER BY HOUR - 16 APRIL, 2014
[ °F ]   °C
Local TimeTemperatureDewpointHumidityBarometerVisibilityWind DirectionWind SpeedGust SpeedPrecipitationEventsConditions
1:53 AM-7.2 °C-9.4 °C85 %1025.7 hPa16.1 kmCalmClear
2:53 AM-6.7 °C-8.9 °C85 %1025.7 hPa16.1 kmCalmClear
3:53 AM-7.8 °C-9.4 °C88 %1026.8 hPa16.1 kmCalmClear
4:53 AM-7.8 °C-9.4 °C88 %1027.4 hPa12.9 kmCalmClear
5:53 AM-7.2 °C-9.4 °C85 %1028.4 hPa16.1 kmCalmClear
6:53 AM-7.8 °C-9.4 °C88 %1029.5 hPa16.1 kmCalmClear
7:53 AM-6.1 °C-8.3 °C85 %1030.5 hPa16.1 kmCalmClear
8:53 AM-2.8 °C-5 °C85 %1030.8 hPa16.1 kmCalmClear
9:53 AM0 °C-11.1 °C44 %1031.5 hPa16.1 kmSouth (180°)9.3 km/hClear
10:53 AM1.1 °C-11.7 °C38 %1031.5 hPa16.1 kmSouth (180°)13 km/hClear
11:53 AM2.2 °C-10 °C41 %1031.8 hPa16.1 kmSW (220°)13 km/hClear
12:53 PM3.3 °C-8.9 °C41 %1031.5 hPa16.1 kmSouth (170°)7.4 km/hClear
2:53 PM5 °C-7.2 °C41 %1030.1 hPa16.1 kmSouth (170°)16.7 km/hClear
3:53 PM5 °C-6.7 °C43 %1030.1 hPa16.1 kmSouth (180°)16.7 km/h31.5 km/hClear
4:53 PM5 °C-6.1 °C45 %1029.5 hPa16.1 kmSSE (160°)24.1 km/h35.2 km/hClear
5:53 PM5 °C-5.6 °C47 %1029.5 hPa16.1 kmSE (140°)18.5 km/hClear
6:53 PM4.4 °C-4.4 °C53 %1029.1 hPa16.1 kmSE (130°)16.7 km/hClear
7:53 PM2.8 °C-5 °C57 %1029.1 hPa16.1 kmESE (110°)14.8 km/hClear
8:53 PM1.7 °C-5.6 °C59 %1029.5 hPa16.1 kmESE (120°)13 km/hClear
9:53 PM1.1 °C-5.6 °C61 %1029.5 hPa16.1 kmEast (100°)14.8 km/hClear
10:53 PM0 °C-6.1 °C64 %1029.5 hPa16.1 kmESE (110°)18.5 km/hClear
11:53 PM0 °C-5.6 °C66 %1028.8 hPa16.1 kmEast (100°)13 km/hClear
Hourly data recorded from KARB, located 0 kilometers away from Ann Arbor, Michigan







STORIES FROM OUR PARTNERS